[[{"header":{"parameterUnit":"m.s-1","parameterCategory":1,"la1":30.2991,"la2":30.254,"lo1":-89.0895,"lo2":-89.0444,"dy":0.0017,"dx":0.0017,"nx":28,"ny":28,"refTime":"2024-06-18T21:00:00:Z","depth":0,"parameterNumber":2,"parameterNumberName":"U-component_of_WINDS"},"data":[0,0,0,0,0,0,0,0,0,0,0,0,0,0,0,0,0,0,0,0,0,0,0,0,0,0,0,0,0,0,0,0,0,0,0,0,0,0,0,0,0,0,0,0,0,0,0,0,0,0,0,0,0,0,0,0,0,0,-8.8883,-8.8883,0,-8.8887,-8.8887,-8.8887,-8.8682,-8.8676,-8.8671,-8.8666,-8.8668,-8.8673,-8.8679,0,0,0,0,0,0,0,0,0,0,0,0,0,-8.8699,-8.8704,-8.8883,-8.8883,-8.8883,-8.8887,-8.8887,-8.8887,-8.8683,-8.8676,-8.8669,-8.8663,-8.8667,-8.8673,-8.8679,0,0,0,0,0,0,0,0,0,0,0,0,0,-8.8749,-8.8705,-8.8883,-8.8782,-8.8773,-8.8887,-8.8887,-8.8887,-8.8684,-8.8676,-8.8668,-8.866,-8.8665,-8.8672,-8.868,-8.8891,0,0,-8.8703,-8.8707,0,0,0,0,0,0,0,0,-8.8746,-8.8756,-8.8797,-8.8789,-8.8779,-8.8775,-8.8823,-8.8888,-8.8686,-8.8718,-8.8665,-8.8656,-8.8711,-8.8714,-8.8732,-8.8891,-8.8891,-8.8704,-8.8709,-8.8712,-8.8714,0,0,0,0,0,0,0,-8.8743,-8.8754,-8.8884,-8.8798,-8.8787,-8.8736,-8.8734,-8.8834,-8.876,-8.8714,-8.8699,-8.8703,-8.8704,-8.8726,-8.8731,-8.8891,-8.8704,-8.8711,-8.8716,-8.8719,-8.9221,-8.9229,0,0,0,0,0,0,-8.8754,-8.8753,-8.8884,-8.8884,-8.8742,-8.8746,-8.8744,-8.8785,-8.8758,-8.8746,-8.871,-8.8693,-8.8716,-8.8722,-8.873,-8.8973,-8.8712,-8.8719,-8.8724,-8.9212,-8.9223,-8.9232,0,0,0,0,0,0,-8.875,-8.8767,-8.8884,-8.8815,-8.8826,-8.8758,-8.8806,-8.8789,-8.881,-8.8755,-8.874,-8.8745,-8.871,-8.872,-8.8852,-8.897,-8.8723,-8.873,-8.9202,-8.9215,-8.9227,-8.9462,0,0,0,0,0,0,-8.8746,-8.8767,-8.8847,-8.8818,-8.883,-8.9006,-8.8813,-8.8795,-8.8824,-8.8802,-8.8784,-8.8773,-8.8705,-8.8842,-8.886,-8.8976,-8.8736,-8.9191,-8.9208,-8.9223,-8.9443,-8.9481,-8.9514,0,0,0,0,0,-8.874,-8.8913,-8.8852,-8.8869,-8.8928,-8.9014,-8.902,-8.8938,-8.8835,-8.8913,-8.8878,-8.8774,-8.8956,-8.8857,-8.8875,-8.8996,-8.9183,-8.9203,-8.9222,-8.9427,-8.9474,-8.9513,0,0,0,0,0,0,-8.8956,-8.8907,-8.8839,-8.9007,-8.9016,-8.8979,-8.9075,-8.899,-8.9028,-8.9007,-8.8903,-8.8901,-8.9049,-8.9036,-8.8927,-8.9198,-8.9051,-8.9075,-8.92,-8.9244,-8.9279,-8.9277,-8.8742,0,0,0,0,0,-8.9024,-8.9097,-8.905,-8.9204,-8.9212,-8.9144,-8.9178,-8.9114,-8.9119,-8.9122,-8.9095,-8.9104,-8.9163,-8.9203,-8.9255,-8.9442,-8.9434,-8.9535,-8.957,-8.9599,-8.962,-8.9717,-8.976,-8.9296,-8.9296,-8.9296,0,0,-8.9163,-8.9145,-8.9198,-8.9247,-8.9246,-8.9324,-8.9148,-8.9238,-8.9295,-8.9135,-8.9257,-8.924,-8.9243,-8.9403,-8.9472,-8.9397,-8.9747,-8.9624,-8.9648,-8.9653,-8.9741,-8.9785,-8.9824,-8.931,-8.9307,-8.9305,0,0,-8.9455,-8.9451,-8.9577,-8.9581,-8.9582,-8.9536,-8.9567,-8.9543,-8.9525,-8.9647,-8.9528,-8.9595,-8.9699,-8.9705,-8.9722,-9.0021,-8.9926,-9.0041,-9.0224,-9.032,-9.0356,-9.0388,-9.0491,-9.053,-9.0063,-9.0064,-9.0064,0,-8.9628,-8.9741,-8.9652,-8.975,-8.9775,-8.9636,-8.9762,-8.977,-8.9789,-8.9808,-8.9724,-8.9852,-8.9844,-9.0003,-9.0076,-9.0096,-9.0126,-9.004,-9.0358,-9.0389,-9.0417,-9.0515,-9.0555,-9.0077,-9.0076,-9.0074,-9.0073,0,-8.9951,-9.0032,-9.0134,-9.0155,-9.0192,-9.0304,-9.0232,-9.028,-9.0215,-9.0178,-9.0304,-9.029,-9.0335,-9.037,-9.0306,-9.052,-9.0473,-9.0376,-9.0224,-9.0477,-9.0566,-9.0603,-9.0097,-9.0092,-9.0088,-9.0084,0,0,-9.0375,-9.0349,-9.0387,-9.0395,-9.0388,-9.0448,-9.0555,-9.06,-9.0642,-9.0661,-9.0746,-9.0839,-9.0748,-9.0768,-9.0705,-9.0789,-9.1024,-9.0681,-9.0679,-9.0742,-9.1256,-9.1326,-9.1371,-9.0963,-9.097,-9.0975,-9.1254,0,-9.0656,-9.0835,-9.076,-9.0946,-9.1018,-9.0889,-9.0981,-9.0987,-9.0957,-9.1014,-9.098,-9.1046,-9.0924,-9.0934,-9.1013,-9.0979,-9.1125,-9.0958,-9.1039,-9.1043,-9.1038,-9.1418,-9.1493,-9.1757,-9.1289,-9.1295,-9.13,0,-9.1007,-9.104,-9.1234,-9.1214,-9.1241,-9.1326,-9.1361,-9.1418,-9.1422,-9.1394,-9.1418,-9.1336,-9.1438,-9.1292,-9.1431,-9.1319,-9.1349,-9.1338,-9.1346,-9.1347,-9.1183,-9.1426,-9.1839,-9.1878,-9.1355,-9.135,-9.1346,0,-9.1293,-9.1387,-9.1514,-9.1525,-9.1506,-9.1568,-9.1563,-9.156,-9.1592,-9.1623,-9.1642,-9.1687,-9.1709,-9.1745,-9.1677,-9.1577,-9.1825,-9.1674,-9.1803,-9.1805,-9.1857,-9.1854,-9.2277,-9.1884,-9.1883,-9.1883,-9.1882,0,-9.1612,-9.1734,-9.1642,-9.172,-9.1853,-9.1767,-9.1901,-9.1882,-9.1881,-9.1952,-9.1845,-9.1914,-9.1823,-9.1884,-9.1832,-9.1953,-9.1966,-9.1945,-9.1928,-9.1952,-9.1954,-9.1966,-9.1944,-9.1893,-9.1891,-9.1889,-9.1887,0,-9.1951,-9.1895,-9.2024,-9.1997,-9.1993,-9.2092,-9.2068,-9.2139,-9.2102,-9.2194,-9.2211,-9.2153,-9.2219,-9.2157,-9.222,-9.2185,-9.2347,-9.2306,-9.2345,-9.2332,-9.2463,-9.2451,-9.2906,-9.296,-9.2537,-9.2541,-9.2544,0,-9.2156,-9.2247,-9.223,-9.227,-9.2272,-9.2339,-9.2371,-9.2291,-9.2329,-9.2342,-9.2411,-9.2469,-9.2509,-9.2621,-9.2584,-9.2632,-9.2589,-9.2746,-9.2595,-9.2616,-9.2587,-9.2581,-9.2589,-9.2775,-9.278,-9.2784,-9.2787,0,-9.2525,-9.2493,-9.2543,-9.2586,-9.2627,-9.2656,-9.2677,-9.2716,-9.2634,-9.2682,-9.2748,-9.2781,-9.2845,-9.2903,-9.294,-9.2933,-9.2847,-9.2836,-9.2868,-9.289,-9.2907,-9.2896,-9.2424,-9.2825,-9.2821,-9.2818,-9.2816,-9.2815,-9.28,-9.2874,-9.2874,-9.2934,-9.2942,-9.2964,-9.3029,-9.3001,-9.3055,-9.3101,-9.3052,-9.3132,-9.3135,-9.3175,-9.3181,-9.3242,-9.3176,-9.3223,-9.3234,-9.3246,-9.3264,-9.2902,-9.3249,-9.3248,-9.3247,-9.3246,-9.3245,0,-9.316,-9.3154,-9.3211,-9.3243,-9.3291,-9.3208,-9.3226,-9.3271,-9.3344,-9.3354,-9.3397,-9.3474,-9.353,-9.35,-9.3547,-9.3603,-9.3564,-9.3618,-9.3611,-9.361,-9.3322,-9.3288,-9.3648,-9.3648,-9.3648,-9.3648,-9.3648,-9.3648,-9.3352,-9.3473,-9.3442,-9.3566,-9.3559,-9.3637,-9.3655,-9.3675,-9.3682,-9.3773,-9.3819,-9.3799,-9.3793,-9.384,-9.3888,-9.3877,-9.3898,-9.3966,-9.3941,-9.3671,-9.3631,-9.3593,-9.356,-9.3972,-9.3972,-9.4223,-9.4226,-9.4228]},{"header":{"parameterUnit":"m.s-1","parameterCategory":1,"la1":30.2991,"la2":30.254,"lo1":-89.0895,"lo2":-89.0444,"dy":0.0017,"dx":0.0017,"nx":28,"ny":28,"refTime":"2024-06-18T21:00:00:Z","depth":0,"parameterNumber":3,"parameterNumberName":"V-component_of_WINDS"},"data":[0,0,0,0,0,0,0,0,0,0,0,0,0,0,0,0,0,0,0,0,0,0,0,0,0,0,0,0,0,0,0,0,0,0,0,0,0,0,0,0,0,0,0,0,0,0,0,0,0,0,0,0,0,0,0,0,0,0,2.155,2.1551,0,2.1578,2.1579,2.1579,2.1577,2.1576,2.1576,2.1575,2.1601,2.1602,2.1603,0,0,0,0,0,0,0,0,0,0,0,0,0,2.1494,2.1495,2.155,2.1551,2.1551,2.1578,2.1579,2.1579,2.1577,2.1576,2.1576,2.1575,2.1601,2.1602,2.1603,0,0,0,0,0,0,0,0,0,0,0,0,0,2.152,2.1495,2.155,2.1553,2.1554,2.1578,2.1579,2.1579,2.1577,2.1576,2.1576,2.1575,2.1601,2.1602,2.1604,2.1626,0,0,2.1609,2.1609,0,0,0,0,0,0,0,0,2.1518,2.1522,2.1552,2.1553,2.1554,2.1574,2.1568,2.1595,2.1577,2.1568,2.1575,2.1575,2.1592,2.1595,2.1601,2.1627,2.1628,2.1609,2.161,2.161,2.1611,0,0,0,0,0,0,0,2.1517,2.1521,2.1561,2.1553,2.1554,2.1553,2.1556,2.1573,2.1583,2.1569,2.1569,2.1572,2.1593,2.16,2.1602,2.1629,2.1609,2.161,2.1611,2.1612,2.1677,2.1678,0,0,0,0,0,0,2.1514,2.1519,2.156,2.1562,2.1534,2.1555,2.1558,2.1568,2.1583,2.1585,2.1573,2.1572,2.1597,2.16,2.1603,2.1631,2.161,2.1612,2.1613,2.1677,2.1678,2.1678,0,0,0,0,0,0,2.1513,2.1518,2.1559,2.1541,2.1546,2.1556,2.1567,2.1569,2.1576,2.1586,2.1588,2.1578,2.1597,2.16,2.1621,2.1632,2.1613,2.1614,2.1676,2.1677,2.1678,2.1688,0,0,0,0,0,0,2.1512,2.1518,2.1526,2.1541,2.1547,2.1577,2.1568,2.157,2.1579,2.1578,2.1592,2.1593,2.1597,2.1619,2.1623,2.1634,2.1615,2.1675,2.1676,2.1678,2.1686,2.1689,2.1691,0,0,0,0,0,2.151,2.1527,2.1527,2.1532,2.1558,2.1578,2.1581,2.1586,2.158,2.1588,2.1596,2.1593,2.1631,2.1621,2.1625,2.1637,2.1674,2.1676,2.1677,2.1685,2.1689,2.1691,0,0,0,0,0,0,2.1511,2.1528,2.1529,2.1551,2.1563,2.1578,2.1589,2.1589,2.1602,2.1601,2.1605,2.1608,2.1629,2.1635,2.1624,2.1661,2.1651,2.1654,2.1656,2.1659,2.1661,2.1659,2.1617,0,0,0,0,0,2.1514,2.153,2.1544,2.1562,2.1569,2.1578,2.1587,2.159,2.1602,2.1606,2.1615,2.1627,2.1641,2.1651,2.1664,2.1688,2.1691,2.1699,2.1701,2.1703,2.1705,2.1719,2.1723,2.1684,2.1684,2.1684,0,0,2.152,2.1532,2.1541,2.1563,2.1573,2.1589,2.1582,2.1598,2.161,2.1609,2.1629,2.1636,2.165,2.1672,2.1683,2.1678,2.1717,2.1705,2.1707,2.1708,2.1722,2.1725,2.1728,2.1685,2.1685,2.1685,0,0,2.1539,2.155,2.1567,2.1578,2.1594,2.16,2.1605,2.162,2.1625,2.1646,2.1646,2.166,2.1685,2.1695,2.1703,2.173,2.1728,2.1735,2.1747,2.1761,2.1764,2.1767,2.1777,2.1781,2.1737,2.1737,2.1737,0,2.1544,2.1569,2.1576,2.1593,2.1604,2.1605,2.1623,2.1633,2.1652,2.1659,2.1654,2.1687,2.1696,2.1722,2.1729,2.1735,2.1741,2.1732,2.1763,2.1766,2.1769,2.1779,2.1782,2.1738,2.1738,2.1737,2.1737,0,2.1575,2.1593,2.1605,2.1625,2.1637,2.1655,2.1664,2.1675,2.1678,2.1685,2.1708,2.1719,2.1736,2.1743,2.1744,2.177,2.1766,2.1762,2.1753,2.1773,2.1782,2.1786,2.1739,2.1738,2.1738,2.1738,0,0,2.1593,2.162,2.1624,2.1635,2.1654,2.1667,2.1686,2.1704,2.1714,2.1728,2.1744,2.1766,2.1764,2.1773,2.1777,2.1789,2.1811,2.1784,2.1784,2.1789,2.1841,2.1843,2.1847,2.1811,2.1811,2.1812,2.184,0,2.1615,2.1649,2.1657,2.1685,2.1702,2.1706,2.1722,2.1735,2.1743,2.1759,2.1767,2.1783,2.1778,2.1784,2.1797,2.1806,2.1821,2.1804,2.1825,2.1826,2.1821,2.1852,2.1854,2.188,2.1843,2.1844,2.1844,0,2.1643,2.1661,2.1692,2.1711,2.1718,2.1733,2.1752,2.1766,2.1782,2.1788,2.18,2.1803,2.1823,2.1813,2.1841,2.1829,2.1838,2.1844,2.1845,2.1847,2.1836,2.1854,2.1888,2.1891,2.185,2.1849,2.1849,0,2.1654,2.1685,2.1708,2.1717,2.174,2.175,2.176,2.1776,2.1787,2.1804,2.1812,2.183,2.1839,2.1853,2.1861,2.1853,2.1888,2.1879,2.1893,2.1893,2.1899,2.1898,2.1934,2.1906,2.1906,2.1906,2.1905,0,2.1677,2.1696,2.1714,2.1728,2.175,2.1759,2.178,2.179,2.1805,2.1821,2.1825,2.184,2.185,2.1866,2.1872,2.1895,2.1899,2.1903,2.1905,2.1903,2.1902,2.1908,2.1907,2.1907,2.1906,2.1906,2.1906,0,2.1692,2.1705,2.173,2.1752,2.1757,2.1773,2.179,2.1804,2.1814,2.1834,2.184,2.1854,2.1874,2.1883,2.1907,2.1912,2.1937,2.1937,2.1932,2.1932,2.1946,2.1944,2.1986,2.1992,2.196,2.196,2.1961,0,2.1706,2.1721,2.1745,2.1757,2.1767,2.1786,2.1799,2.181,2.1822,2.1844,2.1855,2.1876,2.1893,2.1924,2.1936,2.1955,2.1956,2.1969,2.1958,2.1957,2.1956,2.1955,2.1957,2.1971,2.1971,2.1971,2.1972,0,2.1728,2.1735,2.1753,2.1775,2.1791,2.1807,2.1824,2.1834,2.1847,2.1862,2.1883,2.1896,2.1923,2.1943,2.1963,2.1973,2.1975,2.1975,2.198,2.1977,2.1974,2.1976,2.1937,2.1974,2.1974,2.1974,2.1973,2.1973,2.1743,2.1757,2.1777,2.1799,2.1813,2.1829,2.1844,2.1857,2.1875,2.1898,2.1904,2.1927,2.1944,2.1972,2.1983,2.2001,2.1998,2.2004,2.2005,2.2006,2.2007,2.1972,2.2005,2.2005,2.2004,2.2004,2.2004,0,2.1766,2.178,2.18,2.1825,2.1842,2.1844,2.1864,2.1877,2.1898,2.1915,2.1933,2.1958,2.1979,2.1994,2.2015,2.2026,2.2028,2.2031,2.203,2.2033,2.2009,2.2003,2.203,2.203,2.203,2.203,2.203,2.203,2.178,2.1805,2.1815,2.1847,2.1861,2.1885,2.1896,2.1911,2.1925,2.1954,2.1972,2.1982,2.1999,2.2022,2.2041,2.2045,2.2052,2.2056,2.206,2.2037,2.2034,2.2031,2.2026,2.2057,2.2058,2.2082,2.2082,2.2083]}]]